Regional Weather Roundup
Issued by NWS

Home | Current Version | Previous Version | Graphics & Text | Print | Product List | Glossary On
Versions: 1 2 3 4 5 6 7 8 9 10 11 12 13 14 15 16 17 18 19 20 21 22 23 24 25 26 27 28 29 30 31 32 33 34 35 36 37 38 39 40 41 42 43 44 45 46 47 48 49 50
000
ASUS43 KLMK 240610
RWRKY
KENTUCKY REGIONAL WEATHER ROUNDUP
NATIONAL WEATHER SERVICE LOUISVILLE KY
200 AM EDT TUE OCT 24 2017

NOTE "FAIR" INDICATES FEW OR NO CLOUDS BELOW 12,000 FEET
WITH NO SIGNIFICANT WEATHER AND/OR OBSTRUCTIONS TO VISIBILITY.

KYZ001>023-026-027-061>063-070>075-240700-
WESTERN AND SOUTH CENTRAL KENTUCKY

CITY           SKY/WX    TMP DP  RH WIND       PRES   REMARKS
PADUCAH        PTCLDY    56  43  61 NW13      29.86S
HENDERSON      PTCLDY    52  49  89 SW9       29.80S
OWENSBORO      CLOUDY    53  50  89 W8        29.79F
HOPKINSVILLE   CLOUDY    56  46  68 W7        29.84S
BOWLING GREEN  CLOUDY    56  48  74 SW9       29.82R
GLASGOW        CLOUDY    52  47  82 SW8       29.81S
$$

KYZ024-025-028>034-038-045-046-053-240700-
NORTH CENTRAL KENTUCKY

CITY           SKY/WX    TMP DP  RH WIND       PRES   REMARKS
LOUISVILLE/SDF LGT RAIN  52  48  86 S7        29.75F
LOUISVILLE/LOU LGT RAIN  50  50 100 S7        29.76F
FORT KNOX      LGT RAIN  49  47  90 S9        29.75S
$$

KYZ035>037-039>044-047>052-055>060-089>105-240700-
NORTHEAST KENTUCKY

CITY           SKY/WX    TMP DP  RH WIND       PRES   REMARKS
LEXINGTON      CLOUDY    49  45  86 S9        29.79F
COVINGTON      CLOUDY    47  47 100 S10       29.74F
FRANKFORT      CLOUDY    50  45  83 S9        29.77F
$$

KYZ054-064>069-076>088-106>120-240700-
SOUTHEAST KENTUCKY

CITY           SKY/WX    TMP DP  RH WIND       PRES   REMARKS
JACKSON        CLOUDY    50  48  93 VRB5      29.84S
LONDON         CLEAR     47  45  93 S6        29.86F
SOMERSET       CLOUDY    45  45 100 CALM      29.86F
MIDDLESBORO    CLEAR     49  45  85 CALM      29.89F
MONTICELLO     CLEAR     44  43  96 VRB5      29.86F
$$





USA.gov is the U.S. government's official web portal to all federal, state and local government web resources and services.